STARLINK-11507, 62519

Orbit data source: Space-Track

STARLINK-11507, 62519 is a payload satellite owned by SpaceX/Seattle (US) in LEO that was launched on Wed, 08 Jan 2025 UTC via an FALCON 9 launch vehicle from the Air Force Eastern Test Range (AFETR). Payload-class satellites include a variety of spacecraft equipped with specific instruments for various scientific and technological missions. These include communications satellites like Starlink; space stations such as the ISS; scientific satellites like the Hubble; Earth observation satellites from companies like Planet Labs, Umbra, and HawkEye 360; GPS; miniature CubeSats for education and research; and military/defense satellites.

Loading next visibility...
Identifier
62519, 2025-004J
Orbit
LEO
Country
Flag of USUS
Related business
Manufacturer
SpaceX/Seattle
Mission
Operational Commercial Communications
Bus & Motor
STARLINK V2MD, Unknown motor
Mass
960 kg wet, ~910 kg dry
Launch date (UTC)
2025-01-08 (1 year ago)
Launch vehicle
FALCON 9
Launch site
Air Force Eastern Test Range (AFETR)
Object type
Payload
Rocket body
Debris
Shape & HBR
Box + 2 Pan, 18.1 m
Radar Cross Section
36.964 m², Large (>1 m²)

Expand to show TLE details & history
Last TLE update: 12 hours ago

TLE from 12 hours ago
0 STARLINK-11507
1 62519U 25004J   26037.89309683  .00169466  00000-0  12959-2 0  9998
2 62519  42.9992 256.4810 0001416 259.6029 100.4679 15.70867714 62361
Epoch: 2026-02-06T21:26Z
TLE epoch observation values (Epoch: 2026-02-06T21:26:03.566Z)
Latitude
-0.00001°
Longitude
157.94169°
Altitude
356.36 km
Speed
7.697 km/s
True Right ascension
17h 05m 55s
True Declination
0° 00' 00"
Sunlit
Object was in daylight at epoch
Visualization orbit readout
Latitude
Unknown
Longitude
Unknown
Altitude
Unknown
Speed
Unknown
Apparent Right ascension
Unknown
Apparent Declination
Unknown
Sunlit
N/A
Visualization observer readout
Local Sidereal Time
11:31:12
Azimuth
Unknown
Elevation
Unknown
Doppler factor
Unknown
Orbital elements
Apogee altitude
359.351 km
Perigee altitude
357.444 km
Semi-major axis
6,736.535 km
Eccentricity
0.00014
Inclination
42.9992°
RAAN
256.481°
Arg. of periapsis
259.6029°
True anomaly
100.48386°
Mean anomaly
100.4679°
Eccentric anomaly
100.47588°
Mean motion
3.92544 °/min
Orbital period
91.71 mins
BSTAR
0.0012959
Loading maneuver chart data...
Computing Atmospheric mass density...
Loading historical data...
Loading historical data...
Loading historical data...
Loading historical data...
Loading historical data...
Loading historical data...
Loading historical data...

Documentation

Showing up to 5 results
|